Bellefontaine, OH

12:59 PM EDT on May 26, 2017 (GMT -0400)
Bellefontaine

Weather History for KEDJ - December, 2012

Change the Weather History Date:

Sunday, December 30, 2012

  Actual Average (KDLZ) Record (KDLZ)
Temperature  
Mean Temperature 22 °F -  
Max Temperature 26 °F 35 °F 62 °F (1984)
Min Temperature 19 °F 19 °F -7 °F (1983)
Degree Days  
Heating Degree Days 42    
Moisture  
Dew Point 19 °F    
Average Humidity 89    
Maximum Humidity 100    
Minimum Humidity 74    
Precipitation  
Precipitation 0.00 in - - ()
Sea Level Pressure  
Sea Level Pressure 30.26 in    
Wind  
Wind Speed 11 mph (SW)    
Max Wind Speed 17 mph    
Max Gust Speed 22 mph    
Visibility 8 miles    
Events      
Averages and records for this station are not official NWS values.
T = Trace of Precipitation, MM = Missing Value Source: NWS Daily Summary

Daily Weather History Graph

Daily Weather History Graph

Search for Another Location

Airport or City:

Trip Planner

Search our weather history database for the weather conditions in past years. The results will help you decide how hot, cold, wet, or windy it might be!

Date:

Astronomy

Dec. 30, 2012 Rise Set
Actual Time 7:58 AM EST 5:18 PM EST
Civil Twilight 7:27 AM EST 5:48 PM EST
Nautical Twilight 6:53 AM EST 6:23 PM EST
Astronomical Twilight 6:20 AM EST 6:56 PM EST
Moon 7:48 PM EST (12/30) 9:06 AM EST (12/30)
Length of Visible Light 10h 21m
Length of Day
9h 20m
Waning Gibbous, 95% of the Moon is Illuminated
Dec 30
Waning Gibbous
Jan 4
Last Quarter
Jan 11
New
Jan 18
First Quarter
Jan 26
Full

Hourly Weather History & Observations

Time (EST) Temp. Windchill Dew Point Humidity Pressure Visibility Wind Dir Wind Speed Gust Speed Precip Events Conditions
12:05 AM 26.6 °F 16.8 °F 26.6 °F 100% 30.09 in 7.0 mi West 10.4 mph - 0.00 in   Overcast
12:25 AM 26.6 °F 15.7 °F 24.8 °F 93% 30.08 in 8.0 mi West 12.7 mph - 0.00 in   Overcast
12:45 AM 26.6 °F 16.8 °F 24.8 °F 93% 30.09 in 7.0 mi West 10.4 mph - 0.00 in   Overcast
1:05 AM 26.6 °F 16.2 °F 24.8 °F 93% 30.10 in 8.0 mi West 11.5 mph - 0.00 in   Overcast
1:25 AM 26.6 °F 16.8 °F 24.8 °F 93% 30.11 in 8.0 mi West 10.4 mph 16.1 mph 0.00 in   Overcast
1:45 AM 26.6 °F 15.7 °F 24.8 °F 93% 30.12 in 7.0 mi West 12.7 mph - 0.00 in   Overcast
2:05 AM 24.8 °F 15.3 °F 23.0 °F 93% 30.13 in 7.0 mi West 9.2 mph 19.6 mph 0.00 in   Overcast
2:25 AM 24.8 °F 14.0 °F 23.0 °F 93% 30.15 in 7.0 mi West 11.5 mph 18.4 mph 0.00 in   Overcast
2:45 AM 24.8 °F 15.3 °F 23.0 °F 93% 30.16 in 7.0 mi West 9.2 mph - 0.00 in   Overcast
3:05 AM 24.8 °F 14.6 °F 23.0 °F 93% 30.16 in 7.0 mi West 10.4 mph - 0.00 in   Overcast
3:25 AM 24.8 °F 14.0 °F 23.0 °F 93% 30.18 in 8.0 mi West 11.5 mph - 0.00 in   Overcast
3:45 AM 23.0 °F 11.7 °F 23.0 °F 100% 30.18 in 8.0 mi WSW 11.5 mph - 0.00 in   Overcast
4:05 AM 23.0 °F 11.1 °F 23.0 °F 100% 30.19 in 8.0 mi West 12.7 mph - 0.00 in   Overcast
4:25 AM 23.0 °F 12.4 °F 23.0 °F 100% 30.20 in 7.0 mi West 10.4 mph - 0.00 in   Overcast
4:45 AM 23.0 °F 13.1 °F 23.0 °F 100% 30.20 in 7.0 mi West 9.2 mph - 0.00 in   Overcast
5:05 AM 23.0 °F 10.6 °F 23.0 °F 100% 30.21 in 6.0 mi WSW 13.8 mph - 0.00 in   Overcast
5:25 AM 23.0 °F 11.7 °F 23.0 °F 100% 30.22 in 6.0 mi West 11.5 mph - 0.00 in   Overcast
5:45 AM 23.0 °F 11.1 °F 21.2 °F 93% 30.23 in 6.0 mi West 12.7 mph - 0.00 in   Overcast
6:05 AM 23.0 °F 10.6 °F 21.2 °F 93% 30.25 in 6.0 mi WSW 13.8 mph - 0.00 in   Overcast
6:25 AM 23.0 °F 10.1 °F 21.2 °F 93% 30.26 in 6.0 mi WSW 15.0 mph - 0.00 in   Overcast
6:45 AM 23.0 °F 9.6 °F 21.2 °F 93% 30.26 in 5.0 mi West 16.1 mph 20.7 mph 0.00 in   Overcast
7:05 AM 21.2 °F 8.3 °F 21.2 °F 100% 30.27 in 6.0 mi WSW 13.8 mph - 0.00 in   Overcast
7:25 AM 21.2 °F 6.8 °F 21.2 °F 100% 30.28 in 5.0 mi WSW 17.3 mph 21.9 mph 0.00 in   Overcast
7:45 AM 21.2 °F 8.9 °F 21.2 °F 100% 30.29 in 3.0 mi West 12.7 mph - 0.00 in   Overcast
8:05 AM 21.2 °F 9.5 °F 21.2 °F 100% 30.29 in 3.0 mi WSW 11.5 mph 16.1 mph 0.00 in   Overcast
8:25 AM 21.2 °F 7.3 °F 21.2 °F 100% 30.31 in 5.0 mi WSW 16.1 mph - 0.00 in   Overcast
8:45 AM 19.4 °F 6.0 °F 19.4 °F 100% 30.31 in 5.0 mi West 13.8 mph - 0.00 in   Overcast
9:05 AM 19.4 °F 7.2 °F 19.4 °F 100% 30.32 in 7.0 mi West 11.5 mph - 0.00 in   Overcast
9:25 AM 21.2 °F 12.6 °F 19.4 °F 93% 30.32 in 5.0 mi WSW 6.9 mph - 0.00 in   Overcast
9:45 AM 21.2 °F 11.7 °F 19.4 °F 93% 30.33 in 7.0 mi WSW 8.1 mph - 0.00 in   Overcast
10:05 AM 21.2 °F 9.5 °F 17.6 °F 86% 30.34 in 8.0 mi WSW 11.5 mph - 0.00 in   Overcast
10:25 AM 21.2 °F 10.1 °F 17.6 °F 86% 30.34 in 9.0 mi SW 10.4 mph - 0.00 in   Overcast
10:45 AM 21.2 °F 8.9 °F 17.6 °F 86% 30.34 in 8.0 mi SW 12.7 mph - 0.00 in   Overcast
11:05 AM 21.2 °F 9.5 °F 17.6 °F 86% 30.35 in 9.0 mi SW 11.5 mph - 0.00 in   Overcast
11:25 AM 21.2 °F 8.9 °F 17.6 °F 86% 30.35 in 9.0 mi WSW 12.7 mph - 0.00 in   Overcast
11:45 AM 21.2 °F 8.9 °F 17.6 °F 86% 30.34 in 10.0 mi SW 12.7 mph - 0.00 in   Overcast
12:05 PM 21.2 °F 10.1 °F 17.6 °F 86% 30.34 in 10.0 mi WSW 10.4 mph - 0.00 in   Overcast
12:25 PM 21.2 °F 9.5 °F 17.6 °F 86% 30.33 in 10.0 mi SW 11.5 mph - 0.00 in   Mostly Cloudy
12:45 PM 23.0 °F 12.4 °F 17.6 °F 80% 30.33 in 10.0 mi SW 10.4 mph - 0.00 in   Scattered Clouds
1:05 PM 21.2 °F 9.5 °F 17.6 °F 86% 30.32 in 10.0 mi SW 11.5 mph - 0.00 in   Clear
1:25 PM 21.2 °F 8.3 °F 17.6 °F 86% 30.31 in 10.0 mi SSW 13.8 mph - 0.00 in   Clear
1:45 PM 23.0 °F 11.1 °F 17.6 °F 80% 30.31 in 10.0 mi SSW 12.7 mph - 0.00 in   Clear
2:05 PM 23.0 °F 11.7 °F 17.6 °F 80% 30.31 in 10.0 mi SW 11.5 mph - 0.00 in   Clear
2:25 PM 23.0 °F 11.7 °F 17.6 °F 80% 30.32 in 10.0 mi SW 11.5 mph - 0.00 in   Clear
2:45 PM 23.0 °F 11.1 °F 17.6 °F 80% 30.32 in 10.0 mi SW 12.7 mph - 0.00 in   Clear
3:05 PM 23.0 °F 11.1 °F 17.6 °F 80% 30.32 in 10.0 mi SSW 12.7 mph - 0.00 in   Clear
3:25 PM 23.0 °F 11.1 °F 17.6 °F 80% 30.32 in 10.0 mi SSW 12.7 mph - 0.00 in   Clear
3:45 PM 23.0 °F 12.4 °F 17.6 °F 80% 30.31 in 10.0 mi SSW 10.4 mph - 0.00 in   Clear
4:05 PM 21.2 °F 11.7 °F 17.6 °F 86% 30.30 in 10.0 mi SSW 8.1 mph - 0.00 in   Clear
4:25 PM 21.2 °F 14.9 °F 15.8 °F 80% 30.29 in 10.0 mi South 4.6 mph - 0.00 in   Clear
4:45 PM 21.2 °F 11.7 °F 15.8 °F 80% 30.29 in 10.0 mi South 8.1 mph - 0.00 in   Clear
5:05 PM 21.2 °F 13.6 °F 14.0 °F 74% 30.29 in 10.0 mi South 5.8 mph - 0.00 in   Clear
5:30 PM 19.4 °F 9.5 °F 14.0 °F 80% 30.29 in 10.0 mi South 8.1 mph - 0.00 in   Clear
5:50 PM 19.4 °F 10.4 °F 14.0 °F 80% 30.30 in 10.0 mi South 6.9 mph - 0.00 in   Clear
6:25 PM 19.4 °F 9.5 °F 14.0 °F 80% 30.30 in 10.0 mi South 8.1 mph - 0.00 in   Clear
6:45 PM 19.4 °F 9.5 °F 14.0 °F 80% 30.30 in 10.0 mi South 8.1 mph - 0.00 in   Clear
7:05 PM 19.4 °F 8.6 °F 15.8 °F 86% 30.30 in 10.0 mi South 9.2 mph - 0.00 in   Clear
7:25 PM 19.4 °F 7.9 °F 15.8 °F 86% 30.31 in 10.0 mi South 10.4 mph - 0.00 in   Clear
7:45 PM 21.2 °F 10.9 °F 15.8 °F 80% 30.32 in 10.0 mi South 9.2 mph - 0.00 in   Clear
8:05 PM 21.2 °F 11.7 °F 15.8 °F 80% 30.32 in 10.0 mi South 8.1 mph - 0.00 in   Clear
8:25 PM 21.2 °F 10.9 °F 15.8 °F 80% 30.31 in 10.0 mi South 9.2 mph - 0.00 in   Clear
8:45 PM 23.0 °F 12.4 °F 17.6 °F 80% 30.29 in 10.0 mi South 10.4 mph - 0.00 in   Clear
9:05 PM 23.0 °F 12.4 °F 17.6 °F 80% 30.28 in 10.0 mi South 10.4 mph - 0.00 in   Clear
9:25 PM 23.0 °F 12.4 °F 17.6 °F 80% 30.27 in 10.0 mi South 10.4 mph - 0.00 in   Clear
9:45 PM 23.0 °F 11.7 °F 19.4 °F 86% 30.27 in 10.0 mi South 11.5 mph - 0.00 in   Clear
10:05 PM 23.0 °F 12.4 °F 19.4 °F 86% 30.27 in 10.0 mi South 10.4 mph - 0.00 in   Clear
10:45 PM 23.0 °F 11.7 °F 19.4 °F 86% 30.25 in 10.0 mi South 11.5 mph - 0.00 in   Clear
11:05 PM 21.2 °F 11.7 °F 17.6 °F 86% 30.26 in 10.0 mi SSE 8.1 mph - 0.00 in   Clear
11:25 PM 19.4 °F 9.5 °F 17.6 °F 93% 30.26 in 10.0 mi South 8.1 mph - 0.00 in   Clear
11:45 PM 19.4 °F 8.6 °F 17.6 °F 93% 30.26 in 10.0 mi South 9.2 mph - 0.00 in   Clear